QPF
0.08 0.09 0.13 0.13 0.10 0.06 0.04 0.05 0.05 0.03 0.02 0.01 0.02 0.02 0.02 0.02 0.03 0.02 0.01 0.02 0.02 0.03 0.03 0.03 0.03 0.03 0.03 0.03 0.04 0.04 0.04 0.03 0.03 0.04 0.04 0.04 0.03 0.02 0.01 0.01 0.01 0.01 0.01
0.07 0.09 0.11 0.13 0.11 0.07 0.05 0.05 0.05 0.04 0.02 0.02 0.02 0.02 0.02 0.02 0.02 0.02 0.02 0.01 0.02 0.03 0.05 0.04 0.03 0.03 0.03 0.04 0.04 0.04 0.04 0.03 0.03 0.03 0.04 0.05 0.03 0.02 0.01 0.01 0.02 0.02 0.01
0.09 0.10 0.10 0.11 0.10 0.07 0.05 0.04 0.05 0.04 0.02 0.02 0.02 0.02 0.02 0.02 0.03 0.02 0.02 0.01 0.01 0.02 0.04 0.04 0.04 0.03 0.03 0.04 0.04 0.05 0.04 0.04 0.03 0.03 0.03 0.04 0.03 0.02 0.01 0.01 0.01 0.01 0.01
0.11 0.10 0.10 0.10 0.08 0.06 0.05 0.04 0.04 0.04 0.02 0.02 0.03 0.03 0.03 0.03 0.03 0.03 0.02 0.01 0.01 0.01 0.02 0.03 0.03 0.03 0.03 0.03 0.04 0.04 0.05 0.05 0.05 0.04 0.03 0.03 0.04 0.04 0.02 0.02 0.02 0.01 0.01
0.09 0.10 0.10 0.11 0.09 0.07 0.06 0.06 0.04 0.04 0.02 0.02 0.03 0.04 0.04 0.04 0.05 0.03 0.02 0.02 0.02 0.01 0.01 0.02 0.02 0.02 0.03 0.03 0.03 0.04 0.06 0.06 0.05 0.05 0.04 0.03 0.03 0.04 0.04 0.03 0.02 0.02 0.02
0.08 0.08 0.09 0.11 0.10 0.09 0.08 0.07 0.05 0.04 0.02 0.01 0.03 0.04 0.04 0.05 0.05 0.04 0.02 0.01 0.01 0.02 0.02 0.01 0.01 0.01 0.02 0.02 0.03 0.03 0.06 0.08 0.07 0.06 0.05 0.04 0.03 0.03 0.03 0.04 0.04 0.03 0.03
0.09 0.09 0.10 0.11 0.10 0.10 0.10 0.10 0.07 0.05 0.02 0.01 0.02 0.04 0.05 0.05 0.06 0.06 0.04 0.02 0.01 0.01 0.01 0.02 0.02 0.01 0.01 0.01 0.02 0.02 0.03 0.07 0.09 0.08 0.07 0.06 0.04 0.04 0.03 0.02 0.03 0.03 0.03
0.10 0.10 0.10 0.09 0.09 0.09 0.10 0.12 0.09 0.05 0.03 0.02 0.02 0.03 0.05 0.06 0.06 0.06 0.06 0.03 0.01 0.01 0.01 0.01 0.02 0.02 0.02 0.01 0.01 0.02 0.02 0.04 0.08 0.10 0.10 0.09 0.07 0.06 0.05 0.03 0.03 0.03 0.04
0.12 0.10 0.09 0.07 0.08 0.09 0.09 0.12 0.11 0.07 0.05 0.03 0.02 0.03 0.04 0.05 0.06 0.06 0.05 0.05 0.03 0.02 0.02 0.02 0.01 0.02 0.02 0.02 0.01 0.02 0.03 0.03 0.05 0.07 0.09 0.09 0.07 0.06 0.05 0.04 0.03 0.03 0.03
0.15 0.12 0.10 0.06 0.06 0.07 0.07 0.10 0.11 0.07 0.05 0.03 0.03 0.03 0.03 0.03 0.04 0.06 0.06 0.05 0.04 0.03 0.02 0.02 0.02 0.02 0.02 0.02 0.02 0.02 0.03 0.04 0.05 0.06 0.07 0.08 0.09 0.07 0.06 0.05 0.05 0.04 0.03
0.15 0.14 0.12 0.06 0.05 0.06 0.06 0.08 0.10 0.09 0.06 0.03 0.02 0.03 0.03 0.04 0.03 0.04 0.05 0.06 0.05 0.04 0.02 0.02 0.01 0.01 0.02 0.02 0.02 0.02 0.03 0.03 0.04 0.06 0.07 0.08 0.09 0.09 0.08 0.07 0.06 0.06 0.04
0.17 0.14 0.13 0.08 0.06 0.06 0.07 0.07 0.08 0.08 0.07 0.05 0.02 0.02 0.03 0.04 0.04 0.03 0.03 0.04 0.05 0.05 0.03 0.02 0.01 0.01 0.01 0.01 0.02 0.02 0.02 0.03 0.04 0.05 0.08 0.10 0.10 0.09 0.10 0.09 0.08 0.08 0.06
0.19 0.16 0.15 0.11 0.07 0.06 0.07 0.07 0.07 0.06 0.07 0.07 0.05 0.03 0.03 0.03 0.03 0.04 0.04 0.04 0.04 0.05 0.04 0.03 0.02 0.01 0.01 0.01 0.02 0.02 0.02 0.03 0.04 0.05 0.07 0.09 0.11 0.09 0.07 0.07 0.07 0.07 0.07
0.18 0.15 0.15 0.14 0.10 0.07 0.08 0.07 0.07 0.06 0.05 0.06 0.07 0.06 0.05 0.04 0.04 0.04 0.04 0.04 0.04 0.04 0.04 0.03 0.02 0.02 0.01 0.01 0.01 0.02 0.02 0.03 0.04 0.05 0.06 0.07 0.08 0.10 0.07 0.05 0.06 0.06 0.06
0.17 0.14 0.14 0.15 0.14 0.11 0.10 0.09 0.07 0.06 0.05 0.04 0.04 0.05 0.06 0.06 0.05 0.05 0.04 0.04 0.05 0.05 0.04 0.03 0.02 0.02 0.01 0.01 0.01 0.01 0.01 0.02 0.02 0.04 0.05 0.05 0.07 0.09 0.09 0.06 0.04 0.04 0.04
0.14 0.14 0.12 0.13 0.14 0.13 0.12 0.09 0.07 0.06 0.05 0.04 0.03 0.02 0.04 0.05 0.06 0.06 0.05 0.04 0.04 0.03 0.03 0.02 0.01 0.01 0.01 0.01 0.02 0.01 0.02 0.02 0.02 0.03 0.04 0.05 0.05 0.07 0.10 0.09 0.05 0.04 0.03
0.13 0.12 0.12 0.13 0.13 0.13 0.13 0.09 0.06 0.05 0.05 0.04 0.03 0.02 0.02 0.03 0.04 0.06 0.06 0.05 0.04 0.04 0.03 0.02 0.02 0.01 0.01 0.01 0.02 0.01 0.01 0.02 0.02 0.03 0.03 0.04 0.05 0.05 0.07 0.10 0.08 0.05 0.03
0.14 0.12 0.11 0.14 0.14 0.13 0.13 0.11 0.07 0.05 0.05 0.05 0.04 0.03 0.03 0.02 0.03 0.04 0.05 0.05 0.04 0.04 0.03 0.03 0.03 0.03 0.02 0.02 0.01 0.01 0.01 0.01 0.01 0.02 0.03 0.03 0.04 0.05 0.06 0.08 0.09 0.07 0.05
0.16 0.14 0.14 0.15 0.15 0.15 0.14 0.13 0.11 0.08 0.05 0.05 0.05 0.05 0.04 0.03 0.03 0.04 0.04 0.04 0.04 0.04 0.04 0.03 0.03 0.03 0.02 0.02 0.02 0.02 0.02 0.01 0.01 0.01 0.02 0.02 0.03 0.04 0.05 0.07 0.07 0.08 0.07
0.17 0.15 0.12 0.13 0.13 0.13 0.13 0.12 0.12 0.11 0.07 0.05 0.04 0.04 0.04 0.04 0.04 0.05 0.05 0.05 0.04 0.04 0.04 0.04 0.03 0.02 0.02 0.03 0.03 0.03 0.02 0.02 0.01 0.01 0.01 0.02 0.03 0.04 0.05 0.07 0.08 0.07 0.08
0.14 0.14 0.11 0.10 0.09 0.09 0.10 0.09 0.08 0.10 0.10 0.07 0.04 0.03 0.03 0.04 0.04 0.04 0.04 0.05 0.05 0.05 0.05 0.05 0.04 0.03 0.03 0.03 0.03 0.03 0.02 0.02 0.01 0.01 0.01 0.01 0.02 0.02 0.03 0.04 0.06 0.08 0.09
0.11 0.11 0.10 0.08 0.07 0.06 0.08 0.08 0.06 0.07 0.08 0.09 0.07 0.05 0.04 0.03 0.03 0.04 0.04 0.05 0.06 0.06 0.06 0.05 0.04 0.04 0.03 0.02 0.01 0.01 0.02 0.02 0.02 0.01 0.01 0.01 0.01 0.01 0.02 0.03 0.05 0.06 0.08
0.07 0.08 0.07 0.07 0.06 0.06 0.06 0.06 0.06 0.05 0.06 0.06 0.06 0.07 0.07 0.06 0.05 0.04 0.03 0.03 0.03 0.04 0.04 0.04 0.04 0.03 0.02 0.02 0.02 0.02 0.02 0.02 0.01 0.01 0.02 0.02 0.02 0.02 0.02 0.03 0.04 0.04 0.06
0.07 0.06 0.06 0.05 0.04 0.05 0.06 0.06 0.06 0.05 0.05 0.05 0.05 0.05 0.06 0.06 0.06 0.07 0.07 0.06 0.04 0.03 0.03 0.03 0.03 0.02 0.02 0.01 0.02 0.03 0.03 0.03 0.03 0.03 0.03 0.03 0.03 0.02 0.02 0.03 0.03 0.03 0.04
0.07 0.06 0.06 0.06 0.05 0.05 0.05 0.05 0.05 0.05 0.04 0.04 0.04 0.04 0.05 0.05 0.06 0.06 0.05 0.05 0.04 0.04 0.05 0.05 0.05 0.05 0.04 0.04 0.04 0.04 0.06 0.06 0.06 0.04 0.03 0.03 0.03 0.03 0.03 0.02 0.02 0.03 0.03
0.06 0.06 0.05 0.05 0.06 0.05 0.05 0.05 0.04 0.04 0.04 0.03 0.03 0.04 0.05 0.05 0.06 0.06 0.06 0.06 0.05 0.04 0.04 0.04 0.05 0.05 0.05 0.05 0.05 0.04 0.03 0.04 0.05 0.05 0.04 0.03 0.03 0.03 0.03 0.02 0.01 0.01 0.02
MSLP
1024.07 1023.88 1023.63 1023.33 1022.97 1022.58 1022.16 1021.72 1021.25 1020.75 1020.22 1019.64 1019.05 1018.47 1017.93 1017.49 1017.18 1017.04 1017.05 1017.20 1017.45 1017.75 1018.05 1018.30 1018.49 1018.61 1018.69 1018.74 1018.79 1018.86 1018.98 1019.11 1019.26 1019.40 1019.51 1019.59 1019.63 1019.64 1019.63 1019.62 1019.62 1019.62 1019.64
1024.05 1023.86 1023.62 1023.34 1023.02 1022.67 1022.30 1021.89 1021.45 1020.97 1020.42 1019.82 1019.18 1018.54 1017.93 1017.41 1017.02 1016.80 1016.76 1016.87 1017.10 1017.41 1017.74 1018.04 1018.29 1018.47 1018.61 1018.71 1018.81 1018.91 1019.05 1019.20 1019.37 1019.55 1019.70 1019.84 1019.94 1020.02 1020.08 1020.13 1020.17 1020.21 1020.25
1024.02 1023.84 1023.61 1023.36 1023.08 1022.77 1022.45 1022.09 1021.70 1021.23 1020.69 1020.07 1019.39 1018.68 1017.98 1017.36 1016.87 1016.55 1016.42 1016.47 1016.67 1016.96 1017.31 1017.66 1017.97 1018.23 1018.44 1018.60 1018.75 1018.89 1019.04 1019.22 1019.41 1019.60 1019.80 1019.98 1020.15 1020.30 1020.43 1020.54 1020.64 1020.73 1020.80
1024.00 1023.82 1023.62 1023.39 1023.15 1022.90 1022.63 1022.33 1021.98 1021.55 1021.02 1020.38 1019.66 1018.87 1018.09 1017.35 1016.74 1016.30 1016.06 1016.02 1016.15 1016.42 1016.78 1017.16 1017.54 1017.88 1018.17 1018.41 1018.61 1018.79 1018.98 1019.16 1019.37 1019.58 1019.80 1020.03 1020.25 1020.46 1020.66 1020.84 1021.00 1021.14 1021.26
1023.95 1023.79 1023.60 1023.41 1023.22 1023.02 1022.80 1022.56 1022.26 1021.86 1021.35 1020.70 1019.94 1019.09 1018.21 1017.37 1016.62 1016.05 1015.67 1015.52 1015.57 1015.80 1016.14 1016.56 1017.00 1017.41 1017.79 1018.11 1018.38 1018.63 1018.84 1019.06 1019.28 1019.50 1019.74 1020.00 1020.26 1020.52 1020.77 1021.02 1021.24 1021.43 1021.60
1023.83 1023.68 1023.52 1023.36 1023.21 1023.06 1022.90 1022.71 1022.45 1022.09 1021.60 1020.96 1020.18 1019.28 1018.32 1017.38 1016.51 1015.80 1015.30 1015.02 1014.98 1015.13 1015.45 1015.88 1016.36 1016.84 1017.30 1017.72 1018.08 1018.39 1018.66 1018.91 1019.15 1019.40 1019.65 1019.92 1020.21 1020.50 1020.80 1021.09 1021.36 1021.60 1021.82
1023.59 1023.45 1023.30 1023.17 1023.05 1022.94 1022.83 1022.68 1022.48 1022.16 1021.70 1021.08 1020.30 1019.39 1018.39 1017.38 1016.42 1015.60 1014.97 1014.57 1014.42 1014.49 1014.75 1015.16 1015.66 1016.20 1016.73 1017.23 1017.69 1018.08 1018.43 1018.73 1019.01 1019.28 1019.55 1019.83 1020.13 1020.44 1020.77 1021.09 1021.40 1021.68 1021.94
1023.18 1023.03 1022.90 1022.78 1022.68 1022.61 1022.53 1022.43 1022.27 1022.00 1021.60 1021.02 1020.29 1019.40 1018.41 1017.37 1016.37 1015.47 1014.74 1014.23 1013.95 1013.92 1014.10 1014.46 1014.94 1015.50 1016.09 1016.67 1017.21 1017.70 1018.13 1018.51 1018.84 1019.15 1019.45 1019.74 1020.05 1020.37 1020.71 1021.05 1021.38 1021.70 1022.00
1022.60 1022.43 1022.29 1022.18 1022.10 1022.04 1021.99 1021.93 1021.81 1021.61 1021.27 1020.78 1020.12 1019.31 1018.38 1017.38 1016.38 1015.44 1014.65 1014.04 1013.65 1013.49 1013.56 1013.83 1014.26 1014.81 1015.42 1016.05 1016.66 1017.24 1017.77 1018.23 1018.63 1019.00 1019.33 1019.65 1019.97 1020.30 1020.64 1021.00 1021.35 1021.70 1022.03
1021.87 1021.68 1021.52 1021.41 1021.33 1021.28 1021.25 1021.22 1021.15 1021.01 1020.76 1020.37 1019.83 1019.14 1018.32 1017.41 1016.46 1015.54 1014.72 1014.03 1013.54 1013.25 1013.19 1013.33 1013.66 1014.15 1014.74 1015.39 1016.06 1016.71 1017.32 1017.88 1018.36 1018.79 1019.17 1019.53 1019.86 1020.21 1020.56 1020.93 1021.31 1021.69 1022.06
1021.07 1020.85 1020.67 1020.54 1020.46 1020.41 1020.39 1020.38 1020.36 1020.28 1020.12 1019.85 1019.44 1018.90 1018.23 1017.46 1016.61 1015.75 1014.93 1014.20 1013.61 1013.20 1012.99 1012.98 1013.18 1013.56 1014.09 1014.72 1015.41 1016.12 1016.80 1017.44 1018.01 1018.52 1018.96 1019.35 1019.72 1020.08 1020.45 1020.84 1021.25 1021.66 1022.07
1020.26 1020.01 1019.82 1019.68 1019.58 1019.53 1019.51 1019.51 1019.51 1019.49 1019.41 1019.25 1018.99 1018.62 1018.11 1017.50 1016.78 1016.01 1015.23 1014.48 1013.82 1013.30 1012.94 1012.78 1012.82 1013.08 1013.51 1014.08 1014.75 1015.49 1016.22 1016.93 1017.58 1018.16 1018.66 1019.10 1019.51 1019.90 1020.29 1020.70 1021.14 1021.59 1022.04
1019.50 1019.23 1019.02 1018.87 1018.76 1018.69 1018.66 1018.66 1018.67 1018.68 1018.67 1018.61 1018.47 1018.25 1017.91 1017.46 1016.89 1016.24 1015.52 1014.79 1014.09 1013.47 1012.99 1012.68 1012.58 1012.69 1013.00 1013.49 1014.12 1014.85 1015.61 1016.37 1017.08 1017.73 1018.29 1018.78 1019.22 1019.64 1020.05 1020.49 1020.95 1021.44 1021.94
1018.79 1018.51 1018.29 1018.12 1017.99 1017.91 1017.85 1017.83 1017.83 1017.86 1017.88 1017.89 1017.85 1017.75 1017.56 1017.26 1016.85 1016.31 1015.69 1015.01 1014.31 1013.64 1013.07 1012.65 1012.41 1012.38 1012.58 1012.97 1013.54 1014.24 1015.01 1015.79 1016.55 1017.24 1017.86 1018.39 1018.87 1019.32 1019.75 1020.21 1020.69 1021.21 1021.75
1018.10 1017.81 1017.58 1017.39 1017.24 1017.13 1017.04 1016.99 1016.97 1016.98 1017.01 1017.05 1017.08 1017.08 1017.00 1016.84 1016.56 1016.16 1015.64 1015.03 1014.37 1013.71 1013.10 1012.60 1012.26 1012.13 1012.22 1012.53 1013.02 1013.68 1014.43 1015.22 1016.01 1016.74 1017.40 1017.97 1018.48 1018.95 1019.40 1019.87 1020.37 1020.90 1021.47
1017.36 1017.05 1016.80 1016.59 1016.41 1016.26 1016.14 1016.05 1015.99 1015.98 1016.00 1016.06 1016.12 1016.18 1016.19 1016.13 1015.97 1015.69 1015.30 1014.80 1014.22 1013.60 1013.00 1012.48 1012.09 1011.89 1011.90 1012.13 1012.56 1013.17 1013.89 1014.68 1015.48 1016.24 1016.93 1017.55 1018.08 1018.57 1019.03 1019.50 1020.00 1020.54 1021.11
1016.49 1016.14 1015.85 1015.60 1015.39 1015.20 1015.05 1014.92 1014.84 1014.80 1014.81 1014.86 1014.94 1015.03 1015.11 1015.13 1015.08 1014.92 1014.65 1014.26 1013.79 1013.26 1012.72 1012.22 1011.84 1011.61 1011.57 1011.74 1012.12 1012.68 1013.38 1014.17 1014.98 1015.76 1016.49 1017.13 1017.70 1018.21 1018.68 1019.14 1019.63 1020.15 1020.71
1015.41 1015.00 1014.66 1014.35 1014.10 1013.88 1013.69 1013.55 1013.46 1013.41 1013.42 1013.48 1013.58 1013.70 1013.82 1013.91 1013.94 1013.89 1013.73 1013.47 1013.12 1012.69 1012.24 1011.81 1011.45 1011.23 1011.17 1011.31 1011.66 1012.18 1012.86 1013.63 1014.46 1015.27 1016.04 1016.73 1017.33 1017.86 1018.34 1018.80 1019.27 1019.77 1020.31
1014.11 1013.61 1013.18 1012.81 1012.50 1012.25 1012.06 1011.92 1011.85 1011.83 1011.87 1011.97 1012.10 1012.26 1012.42 1012.57 1012.66 1012.69 1012.64 1012.49 1012.25 1011.93 1011.57 1011.22 1010.91 1010.71 1010.66 1010.78 1011.10 1011.60 1012.26 1013.04 1013.88 1014.74 1015.55 1016.29 1016.95 1017.52 1018.02 1018.49 1018.94 1019.41 1019.92
1012.61 1011.99 1011.45 1011.00 1010.63 1010.36 1010.17 1010.08 1010.06 1010.11 1010.23 1010.39 1010.58 1010.80 1011.01 1011.20 1011.35 1011.44 1011.46 1011.39 1011.24 1011.02 1010.74 1010.46 1010.21 1010.04 1010.00 1010.11 1010.42 1010.90 1011.55 1012.34 1013.20 1014.10 1014.97 1015.78 1016.50 1017.13 1017.67 1018.15 1018.60 1019.06 1019.53
1010.96 1010.20 1009.53 1008.98 1008.56 1008.27 1008.12 1008.09 1008.16 1008.33 1008.56 1008.82 1009.11 1009.40 1009.67 1009.90 1010.10 1010.22 1010.28 1010.26 1010.17 1010.00 1009.79 1009.56 1009.35 1009.21 1009.17 1009.29 1009.58 1010.05 1010.70 1011.49 1012.39 1013.33 1014.27 1015.15 1015.95 1016.64 1017.24 1017.75 1018.22 1018.66 1019.12
1009.27 1008.34 1007.54 1006.89 1006.40 1006.11 1005.99 1006.05 1006.24 1006.55 1006.92 1007.33 1007.74 1008.11 1008.44 1008.72 1008.93 1009.07 1009.13 1009.13 1009.05 1008.92 1008.74 1008.54 1008.36 1008.24 1008.21 1008.32 1008.60 1009.07 1009.71 1010.51 1011.44 1012.42 1013.42 1014.38 1015.26 1016.03 1016.69 1017.25 1017.74 1018.19 1018.64
1007.62 1006.53 1005.58 1004.81 1004.27 1003.96 1003.89 1004.04 1004.37 1004.83 1005.36 1005.92 1006.45 1006.92 1007.31 1007.62 1007.83 1007.96 1008.01 1007.99 1007.91 1007.78 1007.61 1007.43 1007.27 1007.16 1007.15 1007.26 1007.54 1008.00 1008.64 1009.44 1010.39 1011.41 1012.46 1013.49 1014.44 1015.29 1016.01 1016.63 1017.15 1017.62 1018.06
1006.09 1004.84 1003.74 1002.87 1002.26 1001.93 1001.90 1002.14 1002.58 1003.19 1003.87 1004.57 1005.21 1005.77 1006.21 1006.54 1006.74 1006.84 1006.85 1006.80 1006.70 1006.56 1006.40 1006.24 1006.10 1006.02 1006.03 1006.17 1006.45 1006.91 1007.56 1008.37 1009.32 1010.37 1011.45 1012.52 1013.53 1014.43 1015.22 1015.88 1016.45 1016.94 1017.39
1004.74 1003.34 1002.10 1001.12 1000.43 1000.09 1000.07 1000.37 1000.91 1001.62 1002.42 1003.22 1003.96 1004.57 1005.05 1005.37 1005.55 1005.61 1005.58 1005.50 1005.38 1005.24 1005.10 1004.97 1004.89 1004.86 1004.92 1005.10 1005.42 1005.90 1006.55 1007.36 1008.32 1009.37 1010.46 1011.56 1012.59 1013.54 1014.36 1015.07 1015.66 1016.17 1016.64
1003.60 1002.06 1000.70 999.61 998.85 998.46 998.44 998.75 999.34 1000.12 1000.98 1001.84 1002.62 1003.26 1003.74 1004.04 1004.19 1004.21 1004.15 1004.04 1003.91 1003.79 1003.70 1003.65 1003.65 1003.71 1003.86 1004.11 1004.49 1005.02 1005.69 1006.50 1007.45 1008.49 1009.58 1010.67 1011.71 1012.66 1013.51 1014.23 1014.85 1015.37 1015.85
Thickness
5610 5612 5616 5618 5619 5621 5623 5624 5626 5627 5629 5630 5632 5633 5634 5635 5635 5635 5635 5635 5636 5637 5637 5637 5638 5638 5639 5638 5638 5637 5637 5636 5636 5635 5635 5634 5634 5633 5632 5632 5631 5630 5630
5600 5603 5606 5609 5610 5611 5614 5616 5617 5619 5621 5622 5624 5625 5627 5627 5628 5628 5628 5628 5628 5629 5630 5630 5631 5632 5632 5632 5631 5631 5631 5631 5630 5629 5629 5629 5628 5628 5627 5627 5626 5625 5624
5589 5593 5596 5599 5601 5602 5604 5607 5608 5610 5612 5614 5615 5617 5618 5619 5620 5620 5620 5620 5621 5621 5622 5622 5624 5624 5625 5625 5625 5625 5625 5624 5624 5623 5623 5623 5623 5622 5622 5621 5620 5620 5619
5578 5581 5585 5588 5590 5592 5595 5597 5599 5600 5602 5603 5605 5607 5608 5610 5611 5612 5613 5613 5613 5613 5613 5614 5616 5616 5617 5618 5618 5618 5618 5618 5617 5617 5617 5617 5617 5617 5616 5616 5615 5614 5613
5565 5569 5573 5576 5579 5583 5585 5588 5589 5591 5592 5593 5595 5597 5599 5601 5602 5603 5604 5604 5605 5605 5605 5606 5607 5608 5608 5609 5610 5611 5611 5611 5611 5611 5611 5611 5611 5611 5610 5610 5609 5609 5608
5552 5557 5560 5564 5567 5571 5574 5576 5579 5581 5582 5584 5586 5587 5588 5591 5593 5594 5595 5596 5596 5597 5597 5598 5599 5599 5599 5600 5602 5603 5603 5604 5604 5605 5605 5605 5605 5605 5604 5604 5604 5603 5602
5539 5544 5548 5551 5555 5559 5563 5566 5569 5570 5571 5574 5576 5575 5577 5581 5582 5584 5585 5586 5587 5588 5588 5589 5590 5591 5591 5592 5592 5594 5595 5596 5597 5598 5598 5598 5598 5598 5598 5598 5598 5597 5597
5527 5532 5536 5540 5543 5547 5551 5556 5559 5559 5561 5564 5566 5566 5566 5568 5571 5574 5575 5577 5578 5579 5580 5580 5581 5582 5583 5583 5583 5585 5586 5588 5589 5590 5591 5591 5591 5591 5591 5592 5592 5591 5591
5516 5522 5526 5529 5532 5536 5541 5545 5548 5550 5551 5554 5556 5558 5558 5559 5559 5563 5565 5567 5568 5570 5571 5571 5572 5574 5574 5574 5575 5576 5577 5579 5580 5582 5583 5583 5584 5584 5584 5584 5584 5584 5584
5506 5510 5515 5519 5522 5526 5530 5534 5537 5539 5541 5544 5546 5549 5551 5553 5551 5551 5554 5556 5559 5560 5561 5563 5564 5565 5565 5565 5566 5566 5568 5569 5570 5572 5574 5575 5576 5576 5577 5577 5577 5577 5577
5495 5500 5505 5508 5512 5516 5520 5523 5526 5528 5531 5534 5536 5538 5541 5543 5544 5544 5544 5545 5548 5550 5552 5554 5555 5556 5556 5556 5556 5557 5558 5559 5561 5562 5564 5566 5566 5567 5568 5568 5569 5568 5568
5484 5489 5494 5498 5502 5505 5509 5513 5516 5518 5521 5524 5526 5528 5530 5532 5534 5535 5536 5536 5537 5539 5542 5544 5545 5547 5547 5547 5547 5548 5549 5550 5551 5552 5554 5555 5556 5557 5558 5559 5559 5560 5560
5474 5479 5484 5488 5491 5496 5499 5502 5506 5508 5511 5513 5516 5519 5521 5523 5526 5528 5528 5527 5527 5528 5531 5533 5535 5536 5537 5537 5537 5538 5539 5539 5540 5542 5543 5544 5545 5546 5547 5548 5549 5550 5550
5465 5470 5474 5477 5481 5486 5489 5492 5496 5498 5500 5503 5506 5509 5511 5513 5516 5518 5519 5519 5517 5518 5520 5523 5524 5525 5526 5527 5527 5527 5528 5528 5530 5531 5532 5533 5534 5535 5536 5537 5538 5539 5539
5457 5461 5464 5467 5472 5476 5480 5482 5485 5488 5490 5493 5496 5499 5501 5503 5505 5508 5509 5511 5511 5510 5511 5513 5513 5515 5515 5516 5516 5517 5518 5518 5519 5520 5521 5522 5523 5524 5525 5526 5526 5527 5528
5449 5453 5455 5458 5463 5467 5469 5472 5475 5478 5480 5483 5485 5488 5490 5492 5495 5497 5498 5500 5502 5503 5502 5504 5504 5506 5505 5505 5506 5507 5507 5508 5509 5510 5510 5511 5512 5513 5513 5514 5515 5516 5516
5440 5443 5446 5450 5453 5457 5459 5462 5465 5468 5470 5472 5475 5478 5480 5482 5484 5486 5487 5489 5491 5493 5492 5493 5493 5494 5494 5495 5495 5496 5497 5498 5499 5499 5500 5500 5501 5501 5502 5503 5504 5505 5505
5433 5435 5437 5440 5444 5447 5449 5452 5454 5457 5459 5462 5465 5467 5469 5471 5473 5475 5476 5478 5480 5482 5482 5482 5482 5482 5483 5485 5485 5486 5487 5488 5488 5489 5489 5490 5490 5491 5492 5493 5493 5493 5494
5423 5425 5428 5431 5434 5437 5439 5441 5444 5446 5449 5452 5454 5456 5458 5460 5462 5463 5465 5467 5469 5471 5472 5471 5471 5471 5472 5474 5474 5475 5476 5477 5478 5478 5479 5479 5480 5481 5482 5482 5482 5482 5483
5414 5416 5418 5421 5423 5426 5428 5431 5433 5435 5438 5441 5443 5445 5447 5450 5451 5452 5454 5456 5457 5458 5459 5460 5460 5460 5461 5463 5463 5464 5465 5465 5466 5467 5468 5469 5469 5469 5470 5471 5472 5472 5472
5404 5407 5409 5411 5413 5415 5418 5420 5423 5425 5426 5429 5431 5433 5436 5439 5441 5442 5444 5445 5447 5447 5448 5449 5449 5449 5450 5451 5453 5454 5453 5454 5454 5456 5457 5458 5457 5458 5458 5459 5460 5460 5461
5394 5396 5398 5400 5402 5405 5408 5410 5412 5413 5415 5417 5420 5422 5424 5427 5429 5431 5433 5435 5437 5437 5438 5439 5439 5441 5442 5442 5442 5443 5442 5442 5443 5445 5445 5447 5447 5447 5447 5447 5449 5449 5450
5383 5385 5387 5389 5391 5393 5396 5399 5400 5402 5404 5406 5409 5411 5413 5416 5418 5420 5422 5423 5425 5426 5428 5430 5431 5432 5433 5433 5432 5432 5432 5432 5434 5435 5434 5436 5436 5437 5437 5437 5437 5438 5438
5372 5374 5376 5379 5381 5383 5385 5387 5389 5390 5392 5394 5397 5399 5402 5404 5406 5408 5410 5411 5413 5415 5417 5419 5421 5423 5424 5424 5423 5423 5422 5421 5421 5422 5422 5423 5426 5426 5427 5427 5426 5426 5426
5361 5363 5365 5368 5370 5372 5374 5376 5377 5378 5380 5382 5385 5387 5390 5393 5395 5397 5399 5400 5402 5404 5405 5407 5409 5411 5412 5412 5412 5410 5409 5409 5410 5411 5411 5411 5413 5414 5415 5415 5415 5414 5414
5350 5352 5354 5357 5360 5361 5363 5364 5365 5367 5369 5371 5374 5376 5379 5381 5383 5385 5387 5389 5390 5392 5394 5396 5397 5398 5399 5399 5400 5400 5400 5399 5398 5399 5399 5398 5399 5398 5400 5403 5403 5402 5401